Erie, PA

1:36 AM EDT on April 26, 2015 (GMT -0400)
Port Meadville | | Change Station
CLOSE
Current Station
Airport
Location: Meadville,
Elevation: 1401 ft
Nearby Weather Stations

Elev 1401 ft 41.63 °N, 80.21 °W | Updated 43 minutes ago

Partly Cloudy
Partly Cloudy
38 °F
Feels Like 32 °F
N
8
Wind Variable Wind from NE

Today
High -- | Low -- °F
--% Chance of Precip.
Yesterday
High -- | Low -- °F
Precip. -- in
6:23 AM 8:13 PM
First Quarter, 52% visible
Pressure 29.75 in
Visibility 10.0 miles
Clouds Clear
Windchill 32 °F
Dew Point 25 °F
Humidity 60%
Rainfall 0.09 in
Snow Depth Not available.
UV 0 out of 12
Pollen 9.00 out of 12
Air Quality Not available.
Flu Activity Sporadic
METAR KGKJ 260453Z AUTO 04007KT 10SM CLR 03/M04 A2973 RMK AO2 SLP072 T00331039 401170000 TSNO

More Conditions Fewer Conditions

Pressure 29.75 in
Visibility 10.0 miles
Clouds Clear
Windchill 32 °F
Dew Point 25 °F
Humidity 60%
Rainfall 0.09 in
Snow Depth Not available.
UV 0 out of 12
Pollen 9.00 out of 12
Air Quality Not available.
Flu Activity Sporadic
METAR KGKJ 260453Z AUTO 04007KT 10SM CLR 03/M04 A2973 RMK AO2 SLP072 T00331039 401170000 TSNO

More Conditions Fewer Conditions

The full scope of the disaster following a powerful 7.8-magnitude earthquake in Nepal may not come into view for days, but global charities are already sending emergency aid. Click to see how you can help.

10-Day Weather Forecast

Almanac

Astronomy

Apr. 26, 2015 Rise Set
Actual Time
Civil Twilight
Nautical Twilight
Astronomical Twilight
Moon
Length of Visible Light
Length of Day
Tomorrow will be .
, % of the Moon is Illuminated

Today's Extremes

State Highs State Lows

Community

WunderPhotos

Upload Photos

1,816,946 photos uploaded!

WunderBlogs® & News

Nearby

Air Quality

  Air Quality AQ Index Pollutant
Not available.

Snow Depth

Station Depth Elevation

Earthquake Activity

City Distance Mag. Time & Date
Minimum magnitude displayed is 2.5.

Coastal Water Temperatures

Place Temperature

Stations

Nearby Weather Stations

Station Location Temp. Windchill Dew Point Humidity Wind Precip. Elev Updated Type